Zurück zum Katalog

DMSP 5D-3 F18 DEB

AktivSSO
NORAD 35954·DEBRIS·🇺🇸 United States

Gestartet Oct 18, 2009 von Vandenberg Space Force Base

Loading…

Nächste Überflüge (nächste 24 Stunden)

TLE

AktuellSource: Space-Track

Epoche: Sep 14, 2026, 22:58 UTC

1 35954U 09057D   26257.95715866  .00001282  00000-0  52805-3 0  9992
2 35954  98.6446 247.6419 0003794 188.4087 191.5366 14.28629938875145

Verfolge DMSP 5D-3 F18 DEB in Echtzeit mit AllMySat

Download on the App Store